SES-12 (43488 NORAD) Tracking and Keplerian Element Data

This shows tracking and keplerian element data for the satellite.

Feedback or suggestion? Click here.




ElementValue
Catalog43488
NameSES-12
Epoch Orbit2200
Epoch Day160.17479937
Epoch Year2024
RAAN52.4205
Inclination0.0324
Eccentricity9.65E-05
Argument of Perigee249.3092
Mean Anonmoly113.2236
Mean Motion1.00270931
Decay Rate-2.7E-06
L11 43488U 18049A 24160.17479937 -.00000270 00000+0 00000+0 0 9997
L22 43488 0.0324 52.4205 0000965 249.3092 113.2236 1.00270931 22000



Live tracking and technical data element details for SES-12 (NORAD 43488). SES-12 can be tracked NOW for your location showing map with azimuth and elevation plus other details from your city location.







IsCatalogInMostPopularTable: catalog: 43488, numindb: 603
Update: records affected: 1



GetName: 43488 SES-12

Hit Count: updated at: Mon, 17 Jun 2024 23:21:56 GMT